Weather History for KTTD - September, 2013

Change the Weather History Date:

Thursday, September 26, 2013

  Actual Average Record
Temperature  
Mean Temperature 59 °F 60 °F  
Max Temperature 67 °F 73 °F 91 °F (1991)
Min Temperature 50 °F 48 °F 36 °F (1972)
Degree Days  
Heating Degree Days 6 6  
Month to date heating degree days 50 85  
Cooling Degree Days 0 1  
Month to date cooling degree days 84 40  
Growing Degree Days 8 (Base 50)    
Moisture  
Dew Point 48 °F    
Average Humidity 69    
Maximum Humidity 93    
Minimum Humidity 45    
Precipitation  
Precipitation 0.00 in 0.08 in 1.20 in (1948)
Month to date precipitation 1.42 1.51  
Year to date precipitation 18.24 28.23  
Snow  
Snow 0.00 in - - ()
Month to date snowfall 0.0  
Snow Depth 0.00 in    
Sea Level Pressure  
Sea Level Pressure 30.08 in    
Wind  
Wind Speed 2 mph (WSW)    
Max Wind Speed 10 mph    
Max Gust Speed 15 mph    
Visibility 10 miles    
Events      
T = Trace of Precipitation, MM = Missing Value Source: NWS Daily Summary

Daily Weather History Graph

Daily Weather History Graph

Search for Another Location

Airport or City:

Trip Planner

Search our weather history database for the weather conditions in past years. The results will help you decide how hot, cold, wet, or windy it might be!

Date:

Astronomy

Sep. 26, 2013 Rise Set
Actual Time 7:02 AM PDT 6:58 PM PDT
Civil Twilight 6:32 AM PDT 7:28 PM PDT
Nautical Twilight 5:57 AM PDT 8:02 PM PDT
Astronomical Twilight 5:22 AM PDT 8:37 PM PDT
Moon 11:47 PM PDT (9/26) 2:13 PM PDT (9/26)
Length of Visible Light 12h 55m
Length of Day
11h 56m
Waning Gibbous, 53% of the Moon is Illuminated
Sep 26
Waning Gibbous
Sep 26
Last Quarter
Oct 4
New
Oct 11
First Quarter
Oct 18
Full

Hourly Weather History & Observations

Time (PDT) Temp. Dew Point Humidity Pressure Visibility Wind Dir Wind Speed Gust Speed Precip Events Conditions
12:53 AM 50.0 °F 48.0 °F 93% 30.04 in 10.0 mi Calm Calm - N/A   Overcast
1:05 AM 50.0 °F 48.2 °F 94% 30.04 in 10.0 mi Calm Calm - N/A   Overcast
1:28 AM 50.0 °F 46.4 °F 87% 30.04 in 10.0 mi Calm Calm - N/A   Overcast
1:43 AM 50.0 °F 48.2 °F 94% 30.04 in 10.0 mi East 3.5 mph - N/A   Overcast
1:53 AM 51.1 °F 48.0 °F 89% 30.04 in 10.0 mi Calm Calm - N/A   Overcast
2:14 AM 51.8 °F 48.2 °F 88% 30.04 in 10.0 mi Calm Calm - N/A   Overcast
2:53 AM 52.0 °F 48.9 °F 89% 30.05 in 10.0 mi Calm Calm - N/A   Overcast
3:05 AM 51.8 °F 48.2 °F 88% 30.05 in 10.0 mi Calm Calm - N/A   Overcast
3:28 AM 51.8 °F 48.2 °F 88% 30.04 in 10.0 mi Calm Calm - N/A   Overcast
3:36 AM 51.8 °F 48.2 °F 88% 30.04 in 10.0 mi Calm Calm - N/A   Overcast
3:53 AM 52.0 °F 48.9 °F 89% 30.04 in 10.0 mi Calm Calm - N/A   Overcast
4:53 AM 52.0 °F 48.9 °F 89% 30.05 in 10.0 mi Calm Calm - N/A   Overcast
5:53 AM 51.1 °F 48.0 °F 89% 30.06 in 10.0 mi WSW 3.5 mph - N/A   Overcast
6:53 AM 52.0 °F 48.0 °F 86% 30.07 in 10.0 mi WSW 3.5 mph - N/A   Overcast
7:53 AM 52.0 °F 48.9 °F 89% 30.08 in 10.0 mi Calm Calm - N/A   Overcast
8:53 AM 53.1 °F 48.9 °F 86% 30.09 in 10.0 mi Calm Calm - N/A   Overcast
8:59 AM 53.6 °F 48.2 °F 82% 30.09 in 10.0 mi Calm Calm - N/A   Overcast
9:53 AM 55.9 °F 48.0 °F 75% 30.10 in 10.0 mi WSW 3.5 mph - N/A   Overcast
9:58 AM 55.4 °F 48.2 °F 77% 30.10 in 10.0 mi Calm Calm - N/A   Overcast
10:53 AM 57.0 °F 46.9 °F 69% 30.11 in 10.0 mi NW 4.6 mph - N/A   Overcast
11:27 AM 57.2 °F 48.2 °F 72% 30.11 in 10.0 mi Calm Calm - N/A   Overcast
11:53 AM 57.9 °F 46.9 °F 67% 30.11 in 10.0 mi NW 4.6 mph - N/A   Overcast
12:53 PM 59.0 °F 46.9 °F 64% 30.11 in 10.0 mi Calm Calm - N/A   Overcast
1:53 PM 62.1 °F 48.0 °F 60% 30.11 in 10.0 mi Calm Calm - N/A   Mostly Cloudy
2:53 PM 64.0 °F 46.0 °F 52% 30.10 in 10.0 mi WSW 4.6 mph - N/A   Partly Cloudy
3:53 PM 64.9 °F 46.0 °F 50% 30.09 in 10.0 mi SW 8.1 mph - N/A   Clear
4:53 PM 66.0 °F 45.0 °F 47% 30.09 in 10.0 mi Variable 3.5 mph - N/A   Clear
5:53 PM 64.0 °F 46.0 °F 52% 30.09 in 10.0 mi SW 5.8 mph - N/A   Clear
6:53 PM 62.1 °F 48.0 °F 60% 30.11 in 10.0 mi SW 10.4 mph - N/A   Overcast
7:53 PM 57.9 °F 48.0 °F 70% 30.13 in 10.0 mi SW 4.6 mph - N/A   Partly Cloudy
8:53 PM 55.9 °F 46.9 °F 72% 30.14 in 10.0 mi Calm Calm - N/A   Scattered Clouds
9:53 PM 55.0 °F 46.9 °F 74% 30.15 in 10.0 mi Calm Calm - N/A   Mostly Cloudy
10:53 PM 54.0 °F 48.0 °F 80% 30.17 in 10.0 mi Calm Calm - N/A   Mostly Cloudy
11:53 PM 54.0 °F 48.0 °F 80% 30.17 in 10.0 mi Calm Calm - N/A   Overcast